| time (UTC) | temp C | wind direction | speed KPH | gust KPH | rain 1hr cm | rain 24hr cm | rain mn cm | humidity % | barometer mb |
| 20260906094504 | 18 | 55 | 0.0 | 0.0 | 0.00 | 0.23 | 0.00 | 86 | 1012.2 |
| 20260906093003 | 19 | 30 | 0.0 | 0.0 | 0.00 | 0.25 | 0.00 | 87 | 1012.0 |
| 20260906091504 | 19 | 30 | 0.0 | 0.0 | 0.00 | 0.25 | 0.00 | 87 | 1012.2 |
| 20260906090004 | 19 | 30 | 0.0 | 0.0 | 0.00 | 0.25 | 0.00 | 88 | 1012.0 |
| 20260906083004 | 20 | 29 | 0.0 | 0.0 | 0.00 | 0.25 | 0.00 | 89 | 1011.9 |
| 20260906081504 | 20 | 29 | 0.0 | 1.6 | 0.00 | 0.25 | 0.00 | 89 | 1011.9 |
| 20260906080004 | 20 | 355 | 0.0 | 0.0 | 0.00 | 0.25 | 0.00 | 90 | 1011.8 |
| 20260906074503 | 20 | 355 | 0.0 | 0.0 | 0.00 | 0.25 | 0.00 | 90 | 1011.7 |
| 20260906073004 | 20 | 355 | 0.0 | 1.6 | 0.00 | 0.25 | 0.00 | 90 | 1011.7 |
| 20260906071504 | 20 | 355 | 0.0 | 1.6 | 0.00 | 0.25 | 0.00 | 91 | 1011.8 |
| 20260906064504 | 21 | 355 | 0.0 | 0.0 | 0.00 | 0.25 | 0.00 | 91 | 1011.9 |
| 20260906063004 | 21 | 355 | 0.0 | 1.6 | 0.00 | 0.25 | 0.00 | 91 | 1011.9 |
| 20260906061504 | 21 | 5 | 0.0 | 0.0 | 0.00 | 0.25 | 0.00 | 91 | 1012.1 |
| 20260906060004 | 21 | 5 | 0.0 | 0.0 | 0.00 | 0.25 | 0.00 | 91 | 1012.0 |
| 20260906054504 | 21 | 5 | 0.0 | 0.0 | 0.00 | 0.25 | 0.00 | 91 | 1011.6 |
| 20260906053004 | 22 | 5 | 0.0 | 0.0 | 0.00 | 0.25 | 0.00 | 91 | 1011.6 |
| 20260906050004 | 22 | 5 | 0.0 | 0.0 | 0.00 | 0.25 | 0.00 | 91 | 1011.4 |
| 20260906044504 | 22 | 5 | 0.0 | 0.0 | 0.00 | 0.25 | 0.00 | 91 | 1011.2 |
| 20260906043004 | 22 | 5 | 0.0 | 0.0 | 0.00 | 0.25 | 0.00 | 91 | 1011.0 |
| 20260906041504 | 23 | 5 | 0.0 | 0.0 | 0.00 | 0.25 | 0.00 | 91 | 1010.8 |
| 20260906040004 | 23 | 355 | 0.0 | 0.0 | 0.00 | 0.25 | 0.00 | 91 | 1010.9 |
| 20260906033003 | 23 | 355 | 0.0 | 0.0 | 0.00 | 0.25 | 0.25 | 91 | 1010.9 |
| 20260906024503 | 23 | 355 | 0.0 | 0.0 | 0.00 | 0.25 | 0.25 | 90 | 1011.1 |
| 20260906023004 | 23 | 355 | 0.0 | 0.0 | 0.00 | 0.25 | 0.25 | 90 | 1011.2 |
| 20260906021503 | 23 | 355 | 0.0 | 0.0 | 0.00 | 0.25 | 0.25 | 90 | 1010.9 |
| 20260906020004 | 24 | 355 | 0.0 | 0.0 | 0.00 | 0.25 | 0.25 | 89 | 1011.0 |
| 20260906014506 | 24 | 355 | 0.0 | 0.0 | 0.00 | 0.25 | 0.25 | 89 | 1010.9 |
| 20260906013004 | 25 | 355 | 0.0 | 0.0 | 0.00 | 0.25 | 0.25 | 88 | 1010.8 |
| 20260906011503 | 25 | 355 | 0.0 | 0.0 | 0.00 | 0.25 | 0.25 | 87 | 1010.6 |
| 20260906010004 | 25 | 355 | 0.0 | 0.0 | 0.00 | 0.25 | 0.25 | 86 | 1010.3 |
| 20260906004504 | 25 | 355 | 0.0 | 0.0 | 0.00 | 0.25 | 0.25 | 84 | 1010.2 |
| 20260906001504 | 25 | 355 | 0.0 | 0.0 | 0.00 | 0.25 | 0.25 | 83 | 1009.9 |
| 20260906000004 | 25 | 355 | 0.0 | 3.2 | 0.00 | 0.25 | 0.25 | 83 | 1009.8 |
| 20260905233004 | 26 | 57 | 0.0 | 0.0 | 0.00 | 0.25 | 0.25 | 84 | 1010.2 |
| 20260905231504 | 27 | 57 | 0.0 | 0.0 | 0.00 | 0.25 | 0.25 | 84 | 1009.6 |
| 20260905230004 | 27 | 57 | 0.0 | 0.0 | 0.00 | 0.25 | 0.25 | 84 | 1009.9 |
| 20260905224504 | 27 | 57 | 0.0 | 0.0 | 0.00 | 0.25 | 0.25 | 83 | 1009.5 |
| 20260905223004 | 27 | 57 | 0.0 | 0.0 | 0.00 | 0.25 | 0.25 | 82 | 1009.7 |
| 20260905221504 | 28 | 57 | 0.0 | 0.0 | 0.00 | 0.25 | 0.25 | 81 | 1009.5 |
| 20260905220004 | 28 | 57 | 0.0 | 0.0 | 0.00 | 0.25 | 0.25 | 79 | 1009.3 |
| 20260905214504 | 29 | 63 | 0.0 | 0.0 | 0.00 | 0.25 | 0.25 | 77 | 1009.1 |
| 20260905211504 | 30 | 63 | 0.0 | 1.6 | 0.00 | 0.25 | 0.25 | 74 | 1009.4 |
| 20260905204515 | 31 | 69 | 0.0 | 1.6 | 0.00 | 0.25 | 0.25 | 72 | 1009.8 |
| 20260905203004 | 31 | 62 | 0.0 | 4.8 | 0.00 | 0.25 | 0.25 | 69 | 1009.7 |
| 20260905201504 | 31 | 69 | 0.0 | 0.0 | 0.00 | 0.25 | 0.25 | 68 | 1009.8 |
| 20260905200005 | 31 | 42 | 0.0 | 1.6 | 0.00 | 0.25 | 0.25 | 66 | 1010.0 |
| 20260905193004 | 31 | 57 | 0.0 | 1.6 | 0.00 | 0.25 | 0.25 | 70 | 1010.5 |
| 20260905191504 | 30 | 51 | 0.0 | 4.8 | 0.00 | 0.25 | 0.25 | 68 | 1010.7 |
| 20260905190004 | 30 | 81 | 0.0 | 8.0 | 0.00 | 0.25 | 0.25 | 68 | 1011.1 |
| 20260905183004 | 30 | 51 | 0.0 | 3.2 | 0.00 | 0.25 | 0.25 | 71 | 1011.4 |
| 20260905180004 | 28 | 74 | 0.0 | 1.6 | 0.00 | 0.25 | 0.25 | 71 | 1011.3 |
| 20260905174504 | 28 | 105 | 0.0 | 1.6 | 0.00 | 0.25 | 0.25 | 74 | 1011.3 |
| 20260905173004 | 28 | 165 | 0.0 | 0.0 | 0.00 | 0.25 | 0.25 | 72 | 1011.1 |
| 20260905171504 | 29 | 189 | 0.0 | 0.0 | 0.00 | 0.25 | 0.25 | 72 | 1011.3 |
| 20260905170004 | 29 | 245 | 0.0 | 3.2 | 0.00 | 0.25 | 0.25 | 70 | 1011.1 |
| 20260905161503 | 28 | 232 | 0.0 | 1.6 | 0.00 | 0.25 | 0.25 | 73 | 1011.4 |
| 20260905160003 | 27 | 276 | 0.0 | 0.0 | 0.00 | 0.25 | 0.25 | 73 | 1011.5 |
| 20260905154504 | 26 | 62 | 0.0 | 1.6 | 0.00 | 0.25 | 0.25 | 77 | 1011.9 |
| 20260905153004 | 26 | 135 | 0.0 | 3.2 | 0.00 | 0.25 | 0.25 | 77 | 1011.7 |
| 20260905151504 | 25 | 90 | 0.0 | 3.2 | 0.00 | 0.25 | 0.25 | 80 | 1011.6 |
| 20260905150004 | 24 | 80 | 0.0 | 3.2 | 0.00 | 0.25 | 0.25 | 79 | 1011.6 |
| 20260905144504 | 23 | 81 | 1.6 | 4.8 | 0.00 | 0.25 | 0.25 | 84 | 1011.3 |
| 20260905143003 | 23 | 252 | 0.0 | 4.8 | 0.00 | 0.25 | 0.25 | 86 | 1010.7 |
| 20260905141504 | 22 | 241 | 1.6 | 4.8 | 0.00 | 0.25 | 0.25 | 87 | 1010.6 |
| 20260905140004 | 22 | 57 | 0.0 | 0.0 | 0.00 | 0.25 | 0.25 | 91 | 1010.9 |
| 20260905134504 | 21 | 57 | 0.0 | 0.0 | 0.00 | 0.25 | 0.25 | 93 | 1011.2 |
| 20260905133004 | 21 | 57 | 0.0 | 0.0 | 0.00 | 0.25 | 0.25 | 93 | 1011.6 |
| 20260905131504 | 20 | 57 | 0.0 | 0.0 | 0.00 | 0.25 | 0.25 | 93 | 1012.1 |
| 20260905130004 | 20 | 57 | 0.0 | 0.0 | 0.00 | 0.25 | 0.25 | 93 | 1012.5 |
| 20260905124504 | 20 | 57 | 0.0 | 0.0 | 0.00 | 0.25 | 0.25 | 94 | 1012.7 |
| 20260905121503 | 20 | 57 | 0.0 | 0.0 | 0.00 | 0.25 | 0.25 | 93 | 1012.9 |
| 20260905120004 | 20 | 57 | 0.0 | 0.0 | 0.00 | 0.25 | 0.25 | 93 | 1012.6 |
| 20260905114504 | 20 | 57 | 0.0 | 0.0 | 0.00 | 0.25 | 0.25 | 93 | 1012.6 |
| 20260905113004 | 20 | 59 | 0.0 | 0.0 | 0.00 | 0.25 | 0.25 | 93 | 1012.8 |
| 20260905111504 | 20 | 59 | 0.0 | 0.0 | 0.20 | 0.25 | 0.25 | 92 | 1012.9 |
| 20260905110004 | 20 | 59 | 0.0 | 0.0 | 0.23 | 0.25 | 0.25 | 92 | 1013.1 |
| 20260905104504 | 20 | 59 | 0.0 | 1.6 | 0.23 | 0.25 | 0.25 | 91 | 1013.2 |
| 20260905103004 | 20 | 115 | 0.0 | 4.8 | 0.25 | 0.25 | 0.25 | 90 | 1013.3 |
| 20260905101504 | 20 | 44 | 3.2 | 12.9 | 0.05 | 0.05 | 0.05 | 88 | 1014.0 |